Showing default

TIROS 6, 397

Orbit data source: Space-Track

TIROS 6, 397 is a payload satellite owned by GSFC (US) in LEO that was launched on Tue, 18 Sep 1962 UTC via a THOR DELTA launch vehicle from the Air Force Eastern Test Range (AFETR). Payload-class satellites include a variety of spacecraft equipped with specific instruments for various scientific and technological missions. These include communications satellites like Starlink; space stations such as the ISS; scientific satellites like the Hubble; Earth observation satellites from companies like Planet Labs, Umbra, and HawkEye 360; GPS; miniature CubeSats for education and research; and military/defense satellites.

Loading next visibility...
Identifier
397, 1962-047A
Orbit
LEO
Last TLE update
10 hours ago
Origin
Manufacturer
RCA/East Windsor
Mission
Non-operational Civil Weather
Bus & Motor
TIROS, Unknown motor
Mass
127 kg wet, 127 kg dry
Launch date (UTC)
1962-09-18 (63 years ago)
Launch vehicle
THOR DELTA
Launch site
Air Force Eastern Test Range (AFETR)
Object type
Payload
Rocket body
Debris
Shape & HBR
Cyl, 1.07 m
Radar Cross Section
0.920 m², Medium (>0.1 m² and < 1m²)

Expand to show TLE details & history

TLE from 10 hours ago
0 TIROS 6
1 00397U 62047A   25187.47665180  .00000987  00000-0  11131-3 0  9992
2 00397  58.3020 158.3497 0013901  67.8958 292.3564 14.94653819360610
Epoch: 2025-07-06T11:26Z
TLE epoch observation values (Epoch: 2025-07-06T11:26:22.715Z)
Latitude
-0.00001°
Longitude
62.05526°
Altitude
581.191 km
Speed
7.573 km/s
True Right ascension
10h 33m 23s
True Declination
0° 00' 00"
Sunlit
Object was in daylight at epoch
Visualization orbit readout
Latitude
-1.80416°
Longitude
-118.51242°
Altitude
588.957 km
Speed
7.564 km/s
Apparent Right ascension
22h 15m 21s
Apparent Declination
-19° 56' 22"
Sunlit
Object is in full shadow
Visualization observer readout
Local Sidereal Time
09:52:55
Azimuth
344.824° N
Elevation
-69.452°
Doppler factor
1
Orbital elements
Apogee altitude
592.585 km
Perigee altitude
573.232 km
Semi-major axis
6,961.046 km
Eccentricity
0.00139
Inclination
58.302°
RAAN
158.3497°
Arg. of periapsis
67.8958°
True anomaly
Unknown
Mean anomaly
292.3564°
Eccentric anomaly
Unknown
Mean motion
3.73707 °/min
Orbital period
96.33 mins
BSTAR
0.00011131
Loading maneuver chart data...
Loading SW <> Apogee altitude chart data...
Loading historical data...
Loading historical data...
Loading historical data...
Loading historical data...
Loading historical data...
Loading historical data...
Loading historical data...

TIROS 6 Visibility forecast

Observer location: undefined°, undefined°

Span
Click to sort rows by Start time (UTC) header in descending order
Start Az.
Max El. time (UTC)
Max El. Az.
Max El.
End time (UTC)
End Az.
8 mins2025-07-07 00:25:52.693Z221.273° SW2025-07-07 00:29:52.693Z243.662° WSW44.842°2025-07-07 00:33:52.693Z41.101° NE
4 mins2025-07-07 02:08:52.693Z305.736° NW2025-07-07 02:09:52.693Z321.604° NNW15.198°2025-07-07 02:12:52.693Z7.494° NNE
5 mins2025-07-07 07:12:52.693Z353.866° N2025-07-07 07:14:52.693Z36.841° NE25.875°2025-07-07 07:17:52.693Z93.35° ESE
5 mins2025-07-07 08:52:52.693Z284.187° WNW2025-07-07 08:54:52.693Z232.006° WSW30.656°2025-07-07 08:57:52.693Z173.907° S
|